Вернуться в каталог

COSMOS 1354

АктивенНавигацияLEO
NORAD 13148·PAYLOAD·🇷🇺 Russia

Запущен Apr 28, 1982 с Plesetsk Cosmodrome

Loading…

Ближайшие Пролёты (ближайшие 24 часа)

TLE

СвежийSource: Space-Track

Эпоха: Sep 14, 2026, 02:36 UTC

1 13148U 82037A   26257.10836496  .00000067  00000-0  34218-4 0  9991
2 13148  74.0374 303.2694 0008066  89.9610 270.2466 14.32830012317792

Отслеживайте COSMOS 1354 в реальном времени с AllMySat

Download on the App Store